Погода в Сеяхе

Погода в Сеяхе : погода сейчас, прогноз погоды и архив. Всё, что Вы хотите узнать о погоде в Сеяхе!

Хотите узнать прогноз погоды в Сеяхе? Тогда Вам сюда: Погода в Сеяхе

Поиск расширенной информации на нашем сайте:

Другие новости

Новости СМИ2

Главная страница сайта

Новости сайта

03.07.2017

Напоминаем, что на нашем специализированном сайте Метеоцентр.Азия вы можете получить высокодетализированные автоматические прогнозы погоды по пунктам России, СНГ и мира в авиационном формате (включающие направление и скорость ветра, видимость, явления погоды, количество и форму облачности, нижнюю и верхнюю границу облачности).

Рекомендуем: Оптовым покупателям женские халаты оптом от нашего лучшего отечественного Российского производителя

Погода в Сеяхе - сегодня

Время (UTC), дата Ветер
(°,м/с) 
Видим.   Явления Облачность Т
(°С)
Тd
(°С)
f(%) Тe
(°С)
Pmin
(гПа)
dP
(гПа)
Po
(мм)
O2
(г/м3)
Тmin Tmax R s Состояние
почвы
03 18.02.18 190 (Ю) 20000 м    8/0 верхняя 
[Cs]
-15.8 -17.6 86 -22  1012.6  -0.2  758  326  -15.9    0.3  55  неравномерный
сухой снег
100% 
09 18.02.18 180 (Ю) 4000 м  слаб. ливневой снег  9/4 300 м кучево-дожд., средняя 
[Cb cap|Ac trans]
-15.2 -17.1 85 -19  1012.5  0.1  758  325           
18 18.02.18 050 (СВ) 20000 м  {ливн. осадки}  9/0 средняя 
[Ac trans]
-21.3 -23.8 80 -27  1014.2  0.6  759  333           
21 18.02.18 050 (СВ) 20000 м    3/0 верхняя 
[Ci fib]
-25.3 -28.2 77 -34  1015.1  0.9  759  339           
00 19.02.18 040 (СВ) 20000 м    3/0 верхняя 
[Ci fib]
-27.3 -30.4 75 -35  1016.5  1.4  761  342           
03 19.02.18 040 (СВ) 20000 м    4/0 верхняя 
[Cc]
-28.3 -31.6 73 -36  1017.9  1.4  762  344  -28.4      56  неравномерный
сухой снег
100% 
09 19.02.18 030 (СВ) 20000 м    8/0 верхняя 
[Cc]
-30.7 -34.3 71 -39  1021.3  2.6  764  349           
12 19.02.18 350 (С) 20000 м    3/0 верхняя 
[Ci fib]
-33.8 -37.7 68 -40  1023.1  1.7  765  354           
15 19.02.18 330 (СЗ) 20000 м    ясно 
-35.4 -39.5 66 -43  1024.2  1.1  766  357    -29.6       
18 19.02.18 320 (СЗ) 20000 м    ясно 
-35.8 -40 65 -44  1025  0.8  767  358           
21 19.02.18 300 (СЗ) 20000 м    ясно 
-35 -39.1 66 -41  1025.7  0.8  767  357           
00 20.02.18 290 (З) 20000 м    ясно 
-34.9 -39 66 -41  1026.6  0.9  768  357           
09 20.02.18 020 (С) 20000 м    4/0 верхняя 
[Cs]
-33.1 -37 68 -34  1029.5  1.3  770  355           
12 20.02.18 тихо ()   20000 м    4/0 верхняя 
[Cs]
-36.1 -40.3 65 -36  1030.8  1.2  771  360           
15 20.02.18 360 (С) 20000 м    3/0 верхняя 
[Ci fib]
-36.1 -40.2 66 -37  1031.2  0.4  771  360           
18 20.02.18 050 (СВ) 20000 м    3/0 верхняя 
[Ci fib]
-35.9 -40.2 64 -37  1031.9  0.7  772  360           
21 20.02.18 060 (СВ) 20000 м    3/0 верхняя 
[Ci fib]
-38.4 -4.3 100 -43  1032.4  0.5  772  363           
00 21.02.18 090 (В) 20000 м    ясно 
-36.5 -40.8 64 -41  1033.4  773  362           
06 21.02.18 080 (В) 20000 м    3/0 240 м верхняя 
[Ci fib]
-33.6 -37.6 67 -38  1034.4  0.7  774  358           
09 21.02.18 080 (В) 20000 м    4/0 верхняя 
[Cs]
-32.8 -36.7 68 -39  1035.3  0.9  774  357           
12 21.02.18 070 (В) 20000 м    3/0 верхняя 
[Ci fib]
-34.4 -38.5 66 -39  1035.7  0.5  775  359           
18 21.02.18 020 (С) 20000 м    ясно 
-35 -39.1 66 -41  1034.6  -0.7  774  360           
21 21.02.18 280 (З) 20000 м    ясно 
-33.9 -37.5 70 -38  1034.2  -0.4  774  358           
00 22.02.18 310 (СЗ) 20000 м    ясно 
-28.4 -31.8 73 -32  1032.9  -1.3  773  349           
03 22.02.18 340 (С) 4000 м  дымка  10/10 270 м 
[St]
-26.7 -29.8 75 -30  1031.8  -1.1  772  347  -37.1      56  неравномерный
сухой снег
100% 
Время (UTC), дата Ветер
(°,м/с) 
Видим.   Явления Облачность Т
(°С)
Тd
(°С)
f(%) Тe
(°С)
Pmin
(гПа)
dP
(гПа)
Po
(мм)
O2
(г/м3)
Тmin Tmax R s Состояние
почвы

Для получения пояснительной информации подведите курсор к названию столбца.

ПОГОДА в Сеяхе - архив

Всё, что Вы хотите узнать о погоде в Сеяхе - удобно и подробно!

Выберите нужную дату (начиная с 1 января 2015* года) и нажмите кнопку "Найти".
Будут отображены архивные сводки погоды по пункту Сеяха, начиная с указанной даты.


Отображать данные в формате CSV (для использования в таблицах Excel)


Внимание! Наш архив погоды предназначен исключительно для личного некоммерческого использования в познавательных целях. Если Вам необходимы официальные справки о состоянии погоды (для производственных, юридических, коммерческих и т.п. целей), обращайтесь в органы Росгидромета.

*Примечание: данная дата относится к архиву по метеостанциям СССР (Россия, СНГ, Балтия).
Архив по метеостанциям Зарубежной Европы и Азии (кроме Китая) хранится 10 дней, по другим регионам земного шара (Китай, Африка, Америка, Австралия, Океания) - 1 день.

Сеяха - район местоположения метеостанции


Название, широта, долгота, высота метеостанции:
Сеяха 70.2°ш. 72.5°д. 16 м над ур. моря [Российская Федерация]

Дополнительная информация

В oтличие oт бoльшинства пoгoдных сайтoв мы публикуем пoдрoбную метеoинфoрмацию в детальнoм прoфессиoнальнoм фoрмате.

Характеристики температуры и влажнoсти вoздуха измеряются на высoте 2 м в тени вдали oт зданий и деревьев.
Скoрoсть ветра измеряется на высoте 10 м (на урoвне рoста челoвека скoрoсть ветра ниже в 1.5-2 раза). Если метеoстанция нахoдится в гoрoде или в лесу, тo скoрoсть ветра занижена на 2-4 м/с пo сравнению с oткрытым местoм. Скoрoсть ветра над акватoриями крупных рек и oзёр, а также на вершинах хoлмoв на 2-5 м/с выше, чем в oбычных услoвиях.
Атмoсфернoе давление в разных тoчках местнoсти мoжет значительнo oтличаться oт давления на метеoстанции, в зависимoсти oт услoвий рельефа (при пoдъёме на 10 м давление пoнижается примернo на 1 мм рт.ст.).